Location: Bothwell
(42.3833°S, 147.0000°E)
Time: 18:59:54
(UTC+11:00)

Oscar 19 - Visible Passes

Search period start: 29 November 2023 00:00
Search period end: 09 December 2023 00:00
Orbit: 771 x 789 km, 98.9° (Epoch: 28 November)

Date Brightness Start Highest point End Pass type
(mag) Time Alt. Az. Time Alt. Az. Time Alt. Az.
29 Nov 13.7 03:21:21 10° E 03:23:47 13° ESE 03:26:14 10° SSE visible
29 Nov 10.8 04:57:01 10° NNE 05:02:15 89° W 05:07:34 10° SSW visible
30 Nov 11.8 04:25:03 10° NE 04:30:02 47° ESE 04:35:05 10° S visible
01 Dec 13.0 03:53:44 10° ENE 03:57:58 25° ESE 04:02:13 10° S visible
02 Dec 13.6 03:23:28 10° E 03:26:03 14° ESE 03:28:39 10° SSE visible
03 Dec 11.8 04:27:18 10° NE 04:32:18 49° ESE 04:37:23 10° S visible
04 Dec 13.0 03:55:57 10° ENE 04:00:14 26° ESE 04:04:33 10° S visible
05 Dec 13.6 03:25:35 10° E 03:28:19 14° ESE 03:31:03 10° SSE visible
06 Dec 11.7 04:29:33 10° NE 04:34:36 51° ESE 04:39:41 10° S visible
07 Dec 12.9 03:58:10 10° ENE 04:02:30 27° ESE 04:06:53 10° S visible
08 Dec 13.6 03:27:43 10° E 03:30:34 15° ESE 03:33:26 10° SSE visible
